EW7340 Weather Reports


Display with metric or nautical units.
time (UTC)temp
F
wind
direction
speed
MPH
gust
MPH
rain 1hr
in
rain 24hr
in
rain mn
in
humidity
%
barometer
mb
20260510101530 64 52 5.0 11.0 0.00 0.00 0.00 58 1013.8
20260510100531 64 22 4.0 11.0 0.00 0.00 0.00 57 1013.9
20260510095530 63 277 3.0 8.0 0.00 0.00 0.00 58 1013.9
20260510094531 63 344 4.0 13.0 0.00 0.00 0.00 58 1013.9
20260510093532 63 25 4.0 9.0 0.00 0.00 0.00 57 1014.1
20260510092531 63 12 4.0 13.0 0.00 0.00 0.00 58 1014.2
20260510091532 63 283 3.0 10.0 0.00 0.00 0.00 60 1014.2
20260510090529 62 60 4.0 11.0 0.00 0.00 0.00 59 1014.3
20260510085529 62 123 3.0 8.0 0.00 0.00 0.00 63 1014.2
20260510083526 61 28 4.0 11.0 0.00 0.00 0.00 66 1014.4
20260510082526 61 333 4.0 13.0 0.00 0.00 0.00 66 1014.5
20260510081524 61 182 3.0 8.0 0.00 0.00 0.00 69 1014.6
20260510080515 60 355 4.0 11.0 0.00 0.00 0.00 68 1014.6
20260510075514 60 78 4.0 12.0 0.00 0.00 0.00 70 1014.7
20260510074509 60 317 4.0 11.0 0.00 0.00 0.00 70 1014.8
20260510073511 59 345 4.0 9.0 0.00 0.00 0.00 72 1014.8
20260510072510 58 38 4.0 11.0 0.00 0.00 0.00 73 1014.7
20260510071505 58 74 3.0 9.0 0.00 0.00 0.00 75 1014.8
20260510070505 57 35 3.0 8.0 0.00 0.00 0.00 76 1014.8
20260510065505 57 76 3.0 7.0 0.00 0.00 0.00 77 1014.9
20260510064505 56 45 2.0 8.0 0.00 0.00 0.00 79 1014.8
20260510063507 56 333 2.0 5.0 0.00 0.00 0.00 81 1014.9
20260510062506 55 30 2.0 9.0 0.00 0.00 0.00 83 1014.8
20260510061455 54 45 1.0 6.0 0.00 0.00 0.00 85 1014.9
20260510060456 53 53 2.0 7.0 0.00 0.00 0.00 88 1014.9
20260510055453 52 70 2.0 7.0 0.00 0.00 0.00 89 1014.9
20260510054452 52 307 2.0 5.0 0.00 0.00 0.00 90 1014.8
20260510053451 51 28 1.0 6.0 0.00 0.00 0.00 91 1014.9
20260510052449 51 25 2.0 5.0 0.00 0.00 0.00 91 1014.8
20260510051450 50 40 1.0 3.0 0.00 0.00 0.00 92 1014.8
20260510050449 50 118 1.0 4.0 0.00 0.00 0.00 92 1014.7
20260510045929 50 0 1.0 5.0 0.00 0.00 0.00 92 1014.7
20260510044449 50 329 1.0 5.0 0.00 0.00 0.00 93 1014.8
20260510043449 49 331 1.0 5.0 0.00 0.00 0.00 93 1014.9
20260510042449 49 22 1.0 3.0 0.00 0.00 0.00 92 1014.8
20260510041449 49 48 1.0 3.0 0.00 0.00 0.00 92 1014.9
20260510040449 50 46 0.0 4.0 0.00 0.00 0.00 91 1014.8
20260510035449 50 14 1.0 4.0 0.00 0.00 0.00 91 1014.8
20260510034448 50 11 1.0 7.0 0.00 0.00 0.00 91 1014.8
20260510033448 50 323 1.0 5.0 0.00 0.00 0.00 91 1014.8
20260510032449 50 263 1.0 6.0 0.00 0.00 0.00 91 1014.7
20260510031445 50 346 1.0 4.0 0.00 0.00 0.00 91 1014.7
20260510030931 50 349 1.0 4.0 0.00 0.00 0.00 91 1014.7
20260510025447 50 213 1.0 4.0 0.00 0.00 0.00 92 1014.8
20260510024447 50 355 1.0 3.0 0.00 0.00 0.00 92 1014.8
20260510023446 49 348 1.0 3.0 0.00 0.00 0.00 92 1014.8
20260510022443 49 349 1.0 4.0 0.00 0.00 0.00 93 1014.9
20260510021443 49 350 0.0 3.0 0.00 0.00 0.00 92 1014.9
20260510020445 50 355 0.0 1.0 0.00 0.00 0.00 92 1015.0
20260510015444 50 355 0.0 1.0 0.00 0.00 0.00 92 1015.1
20260510013445 51 351 0.0 2.0 0.00 0.00 0.00 91 1015.3
20260510012443 51 351 0.0 2.0 0.00 0.00 0.00 90 1015.1
20260510011443 51 348 0.0 3.0 0.00 0.00 0.00 90 1015.0
20260510010442 51 323 1.0 4.0 0.00 0.00 0.00 90 1015.0
20260510005443 52 325 0.0 3.0 0.00 0.00 0.00 90 1015.1
20260510004441 52 323 1.0 3.0 0.00 0.00 0.00 90 1015.2
20260510003439 52 311 1.0 2.0 0.00 0.00 0.00 90 1015.3
20260510002437 52 306 1.0 4.0 0.00 0.00 0.00 90 1015.4
20260510000440 52 25 0.0 3.0 0.00 0.00 0.00 89 1015.5
20260509235437 52 24 0.0 1.0 0.00 0.00 0.00 89 1015.5
20260509234437 52 24 0.0 2.0 0.00 0.00 0.00 88 1015.6
20260509233433 52 24 0.0 2.0 0.00 0.00 0.00 88 1015.6
20260509232432 52 24 1.0 2.0 0.00 0.00 0.00 88 1015.6
20260509231431 52 28 0.0 3.0 0.00 0.00 0.00 87 1015.6
20260509230431 52 26 0.0 2.0 0.00 0.00 0.00 86 1015.7
20260509225431 52 26 1.0 4.0 0.00 0.00 0.00 86 1015.7
20260509224430 53 24 0.0 1.0 0.00 0.00 0.00 85 1015.7
20260509223429 53 22 0.0 2.0 0.00 0.00 0.00 84 1015.7
20260509222429 53 22 0.0 2.0 0.00 0.00 0.00 83 1015.7
20260509221429 53 22 0.0 2.0 0.00 0.00 0.00 82 1015.7
20260509220429 54 21 0.0 2.0 0.00 0.00 0.00 81 1015.7
20260509215429 54 19 0.0 3.0 0.00 0.00 0.00 80 1015.7
20260509214918 54 21 0.0 2.0 0.00 0.00 0.00 79 1015.7
20260509213425 54 21 1.0 3.0 0.00 0.00 0.00 78 1015.6
20260509212425 54 22 1.0 3.0 0.00 0.00 0.00 78 1015.7
20260509211424 54 34 0.0 2.0 0.00 0.00 0.00 78 1015.6
20260509210425 54 35 0.0 2.0 0.00 0.00 0.00 78 1015.5
20260509205424 55 33 0.0 2.0 0.00 0.00 0.00 78 1015.6
20260509204856 55 32 0.0 2.0 0.00 0.00 0.00 78 1015.7
20260509203424 55 32 0.0 4.0 0.00 0.00 0.00 77 1015.7
20260509202425 55 49 0.0 1.0 0.00 0.00 0.00 77 1015.6
20260509201424 56 49 0.0 2.0 0.00 0.00 0.00 75 1015.5
20260509200422 56 49 0.0 2.0 0.00 0.00 0.00 74 1015.4
20260509195422 57 49 0.0 1.0 0.00 0.00 0.00 73 1015.5
20260509194420 58 49 0.0 2.0 0.00 0.00 0.00 71 1015.6
20260509193857 59 49 0.0 3.0 0.00 0.00 0.00 69 1015.5
20260509192418 59 49 0.0 3.0 0.00 0.00 0.00 67 1015.4
20260509191905 60 51 1.0 3.0 0.00 0.00 0.00 65 1015.4
20260509190418 61 52 0.0 2.0 0.00 0.00 0.00 64 1015.3
20260509185416 62 57 1.0 4.0 0.00 0.00 0.00 62 1015.3
20260509184414 62 61 2.0 7.0 0.00 0.00 0.00 60 1015.3
20260509183415 63 65 2.0 7.0 0.00 0.00 0.00 60 1015.2
20260509182412 63 34 3.0 9.0 0.00 0.00 0.00 59 1015.1
20260509181413 64 46 1.0 4.0 0.00 0.00 0.00 58 1015.0
20260509180414 64 56 1.0 5.0 0.00 0.00 0.00 57 1014.9
20260509175414 65 37 2.0 5.0 0.00 0.00 0.00 55 1014.8
20260509174413 65 40 1.0 3.0 0.00 0.00 0.00 55 1014.9
20260509173413 66 330 1.0 7.0 0.00 0.00 0.00 54 1014.9
20260509172414 66 312 1.0 5.0 0.00 0.00 0.00 53 1015.0
20260509171410 67 30 2.0 5.0 0.00 0.00 0.00 51 1015.0
20260509170410 67 48 1.0 4.0 0.00 0.00 0.00 50 1015.1
20260509164411 67 15 2.0 5.0 0.00 0.00 0.00 50 1015.1
20260509163413 68 61 2.0 9.0 0.00 0.00 0.00 48 1015.1
20260509162411 68 285 2.0 5.0 0.00 0.00 0.00 51 1015.1
20260509161411 67 317 2.0 6.0 0.00 0.00 0.00 51 1015.1
20260509160411 67 331 1.0 6.0 0.00 0.00 0.00 50 1015.1
20260509154410 68 80 2.0 5.0 0.00 0.00 0.00 49 1015.1
20260509153408 69 336 3.0 7.0 0.00 0.00 0.00 48 1015.0
20260509152405 69 40 3.0 9.0 0.00 0.00 0.00 46 1015.1
20260509151846 70 21 2.0 7.0 0.00 0.00 0.00 48 1015.1
20260509150402 70 304 3.0 8.0 0.00 0.00 0.00 47 1015.2
20260509145403 70 14 3.0 7.0 0.00 0.00 0.00 48 1015.2
20260509144404 71 327 3.0 7.0 0.00 0.00 0.00 48 1015.2
20260509143404 70 26 3.0 7.0 0.00 0.00 0.00 46 1015.4
20260509142404 71 12 3.0 6.0 0.00 0.00 0.00 48 1015.4
20260509141402 71 319 3.0 8.0 0.00 0.00 0.00 48 1015.4
20260509140402 70 320 3.0 8.0 0.00 0.00 0.00 48 1015.6
20260509135404 71 307 2.0 7.0 0.00 0.00 0.00 47 1015.6
20260509133402 71 355 2.0 6.0 0.00 0.00 0.00 48 1016.0
20260509132835 71 13 3.0 8.0 0.00 0.00 0.00 49 1016.0
20260509131400 70 313 3.0 6.0 0.00 0.00 0.00 45 1016.1
20260509130358 70 309 3.0 6.0 0.00 0.00 0.00 48 1016.2
20260509125355 69 314 3.0 8.0 0.00 0.00 0.00 48 1016.4
20260509124354 69 66 3.0 8.0 0.00 0.00 0.00 47 1016.5
20260509123352 69 9 3.0 7.0 0.00 0.00 0.00 48 1016.6
20260509122351 68 45 3.0 7.0 0.00 0.00 0.00 50 1016.6
20260509121348 69 5 2.0 7.0 0.00 0.00 0.00 50 1016.8
20260509120348 68 65 3.0 8.0 0.00 0.00 0.00 50 1016.8
20260509115822 67 342 2.0 6.0 0.00 0.00 0.00 54 1016.8
20260509114346 67 313 3.0 7.0 0.00 0.00 0.00 53 1016.9
20260509113345 67 317 3.0 9.0 0.00 0.00 0.00 56 1017.1
20260509112343 67 59 3.0 10.0 0.00 0.00 0.00 51 1017.2
20260509111342 68 66 4.0 9.0 0.00 0.00 0.00 53 1017.2
20260509110342 67 74 4.0 12.0 0.00 0.00 0.00 53 1017.3
20260509105342 67 67 3.0 9.0 0.00 0.00 0.00 55 1017.4
20260509104340 66 332 3.0 9.0 0.00 0.00 0.00 54 1017.5
20260509103340 66 69 3.0 11.0 0.00 0.00 0.00 56 1017.6
20260509102341 65 5 5.0 11.0 0.00 0.00 0.00 55 1017.6